Regional Weather Roundup
Issued by NWS

Home | Current Version | Previous Version | Graphics & Text | Print | Product List | Glossary On
Versions: 1 2 3 4 5 6 7 8 9 10 11 12 13 14 15 16 17 18 19 20 21 22 23 24 25 26 27 28 29 30 31 32 33 34 35 36 37 38 39 40 41 42 43 44 45 46 47 48 49 50
000
ASUS43 KIND 230009
RWRIN

WEATHER ROUNDUP FOR INDIANA
NATIONAL WEATHER SERVICE INDIANAPOLIS IN
700 PM EST WED FEB 22 2017

NOTE: "FAIR" INDICATES FEW OR NO CLOUDS BELOW 12,000 FEET WITH NO
SIGNIFICANT WEATHER AND/OR OBSTRUCTIONS TO VISIBILITY.

* - STATION DOES NOT REPORT WEATHER SUCH AS PRECIPITATION OR FOG.

+ - STATION NOT QUALITY CONTROLLED BY THE NATIONAL WEATHER SERVICE.
    USE DATA WITH CAUTION...ESPECIALLY DEWPOINT AND RELATIVE
    HUMIDITY OBSERVATIONS.

INZ001>003-010>013-019-020-230100-
NORTHWEST INDIANA

CITY           SKY/WX    TMP DP  RH WIND       PRES   REMARKS
GARY /AIRPORT/ CLEAR     66  54  63 S9        29.66F
KNOX *+        PTCLDY    59  36  41 S13       29.70S
LA PORTE +     PTCLDY    60  54  80 S8        29.69F
6HR MIN TEMP:  58; 6HR MAX TEMP:  64;

MICHIGAN CITY+ PTCLDY    61  54  77 S6        29.67F
MONTICELLO +   CLEAR     60  53  76 S6        29.72F
6HR MIN TEMP:  60; 6HR MAX TEMP:  68;

RENSSELAER +   CLEAR     59  54  82 S9        29.70F
VALPARAISO     PTCLDY    63  56  78 S9        29.69F
6HR MIN TEMP:  61; 6HR MAX TEMP:  67;


$$

LMZ046-743>745-230100-
SOUTHERN LAKE MICHIGAN

STATION/POSITION TIME  TEMP    WIND        PRES    WAVE
                       AIR SEA DIR/SP/G            HT
                 (UTC) (F)     (DEG/KT/KT) (MB)    (FT)
BURNS HARBOR     2340   63     180/ 11/ 14 1005.1F
MICHIGAN CITY    2340   63     150/ 11/ 13   N/A

$$

INZ004-005-014>016-021>024-230100-
NORTH CENTRAL INDIANA

CITY           SKY/WX    TMP DP  RH WIND       PRES   REMARKS
ELKHART        PTCLDY    57  52  82 S8        29.71F
GOSHEN         PTCLDY    57  51  80 S8        29.72F
6HR MIN TEMP:  57; 6HR MAX TEMP:  64;

LOGANSPORT +   CLEAR     55  52  88 S6        29.74F
PERU/GRISSOM   CLEAR     56  56 100 S8        29.73F
6HR MIN TEMP:  56; 6HR MAX TEMP:  64;

ROCHESTER +    PTCLDY    61  54  77 S6        29.73F
SOUTH BEND     MOCLDY    58  53  84 S13       29.70F
6HR MIN TEMP:  58; 6HR MAX TEMP:  62;

WARSAW +       CLOUDY    59  52  77 S3        29.73F

$$

INZ006>009-017-018-025>027-230100-
NORTHEAST INDIANA

CITY           SKY/WX    TMP DP  RH WIND       PRES   REMARKS
ANGOLA *+      CLOUDY    59  48  67 SW9       29.74S
AUBURN +       CLOUDY    59  52  77 CALM      29.76S
FORT WAYNE     CLOUDY    59  53  80 S7        29.76S
6HR MIN TEMP:  59; 6HR MAX TEMP:  63;

HUNTINGTON +   CLOUDY    59  55  87 CALM      29.76S
6HR MIN TEMP:  59; 6HR MAX TEMP:  62;

KENDALLVILLE + CLOUDY    58  53  83 SW7       29.75S

$$

INZ028-029-035-036-043>045-051>053-230100-
WEST CENTRAL INDIANA

CITY           SKY/WX    TMP DP  RH WIND       PRES   REMARKS
LAFAYETTE      PTCLDY    62  55  77 S6        29.73S
6HR MIN TEMP:  61; 6HR MAX TEMP:  66;

TERRE HAUTE    PTCLDY    64  53  67 SW9       29.76R
6HR MIN TEMP:  63; 6HR MAX TEMP:  71;


$$

INZ030>032-037>040-046>048-054>057-064-065-230100-
CENTRAL INDIANA

CITY           SKY/WX    TMP DP  RH WIND       PRES   REMARKS
CP ATTERBURY + CLOUDY    63  55  77 SE3       29.79S
COLUMBUS       CLOUDY    61  59  94 E3        29.79S
FRANKFORT +    MOCLDY    61  55  82 S6        29.77S
6HR MIN TEMP:  61; 6HR MAX TEMP:  68;

GREENWOOD *+   MOCLDY    64  56  76 SE5       29.78F
6HR MIN TEMP:  62; 6HR MAX TEMP:  67;

INDIANAPOLIS   PTCLDY    61  54  77 S6        29.77S
6HR MIN TEMP:  61; 6HR MAX TEMP:  69;

-EAGLE CREEK   PTCLDY    64  54  69 S6        29.76F
6HR MIN TEMP:  61; 6HR MAX TEMP:  68;

KOKOMO +       PTCLDY    58  53  84 S7        29.76F
6HR MIN TEMP:  58; 6HR MAX TEMP:  64;

MARION +       CLOUDY    60  53  77 S6        29.77S
MT COMFORT *+  CLOUDY    61  55  82 S6        29.79S
SHELBYVILLE    CLOUDY    62  55  77 S6        29.78S
6HR MIN TEMP:  60; 6HR MAX TEMP:  67;

ZIONSVILLE +   CLOUDY    63  54  72 S9        29.76F
6HR MIN TEMP:  59; 6HR MAX TEMP:  66;


$$

INZ033-034-041-042-049-050-058-059-230100-
EAST CENTRAL INDIANA

CITY           SKY/WX    TMP DP  RH WIND       PRES   REMARKS
MUNCIE         CLOUDY    62  55  77 S12       29.78R
6HR MIN TEMP:  62; 6HR MAX TEMP:  64;


$$

INZ060-061-067>069-081>083-085>088-230100-
SOUTHWEST INDIANA

CITY           SKY/WX    TMP DP  RH WIND       PRES   REMARKS
EVANSVILLE     PTCLDY    64  54  69 S3        29.80R
6HR MIN TEMP:  64; 6HR MAX TEMP:  72;

HUNTINGBURG *+ MOCLDY    64  56  75 S6        29.81R
6HR MIN TEMP:  63; 6HR MAX TEMP:  72;

WASHINGTON +   CLEAR     64  53  68 S7        29.79R
6HR MIN TEMP:  64; 6HR MAX TEMP:  71; 6HR PCP:  0.01;


$$

INZ062-063-066-070>080-084-089>092-230100-
SOUTH CENTRAL AND SOUTHEAST INDIANA

CITY           SKY/WX    TMP DP  RH WIND       PRES   REMARKS
BLOOMINGTON    CLEAR     64  52  64 SW7       29.78S
6HR MIN TEMP:  62; 6HR MAX TEMP:  70;

MADISON *+     CLEAR     63  54  72 S7        29.83R
NORTH VERNON + CLOUDY    66  55  68 S5        29.79S
SEYMOUR +      PTCLDY    63  54  72 S7        29.79R

$$




USA.gov is the U.S. government's official web portal to all federal, state and local government web resources and services.